Effective Sunday, March 17, 2024, the National Weather Service National Data Buoy Center will discontinue its Dial-A-Buoy Interactive Voice Response system. For more information, see Service Change Notice 24-06 (PDF).

Station WAXM3 - Carriage House, Waquoit Bay Reserve, MA Image indicating link to RSS feed of recent meteorological observations for station WAXM3


Conditions at WAXM3 as of
(8:45 am EST)
1345 GMT on 02/26/2024:
     

Click on the graph icon in the table below to see a time series plot of the last five days of that observation.

5-day plot - Wind Direction Wind Direction (WDIR): S ( 170 deg true )
5-day plot - Wind Speed Wind Speed (WSPD): 4.1 kts
5-day plot - Atmospheric Pressure Atmospheric Pressure (PRES):30.06 in
5-day plot - Air Temperature Air Temperature (ATMP): 39.9 °F
5-day plot - Dew Point Dew Point (DEWP): 35.6 °F
5-day plot - Wind Chill Wind Chill (CHILL): 36.7 °F
5-day plot -  Wind Speed, Wind Gust and Atmospheric Pressure Combined plot of Wind Speed, Gust, and Air Pressure
Previous observations
TIME
(EST)
5-day plot - Wind Direction
WDIR
 
5-day plot - Wind Speed
WSPD
kts
5-day plot - Wind Gust
GST
kts
5-day plot - Wave Height
WVHT
ft
5-day plot - Dominant Wave Period
DPD
sec
5-day plot - Average Wave Period
APD
sec
5-day plot - Mean Wave Direction
MWD
 
5-day plot - Atmospheric Pressure
PRES
in
5-day plot - Pressure Tendency
PTDY
in
5-day plot - Air Temperature
ATMP
°F
5-day plot - Water Temperature
WTMP
°F
5-day plot - Dew Point
DEWP
°F
5-day plot - Salinity
SAL
psu
5-day plot - Visibility
VIS
nmi
5-day plot - Tide (above MLLW)
TIDE
ft
2024-02-26 08:30 amSSE 4.1-----30.06- 39.6- 35.4---
2024-02-26 08:15 amSSE 2.9-----30.06- 38.7- 35.2---
2024-02-26 08:00 amSSE 4.1-----30.06+0.00 37.6- 34.9---
2024-02-26 07:45 amSSE 2.9-----30.06- 36.7- 34.3---
2024-02-26 07:30 amSSE 2.9-----30.06- 36.5- 33.8---
2024-02-26 07:15 amSSE 2.9-----30.06- 36.5- 33.6---
2024-02-26 07:00 amSSE 4.1-----30.06-0.03 36.3- 33.4---
2024-02-26 06:45 amSSE 4.1-----30.06- 36.0- 33.1---
2024-02-26 06:30 amSSE 2.9-----30.06- 35.8- 32.9---
2024-02-26 06:15 amSSE 2.9-----30.06- 35.6- 32.4---
2024-02-26 06:00 amSSE 2.9-----30.06-0.03 35.4- 32.2---
2024-02-26 05:45 amSSE 2.9-----30.06- 35.1- 32.2---
2024-02-26 05:30 amSSE 2.9-----30.06- 35.1- 32.4---
2024-02-26 05:15 amSSE 2.9-----30.06- 34.9- 32.2---
2024-02-26 05:00 amSSE 2.9-----30.06-0.03 34.9- 32.2---
2024-02-26 04:45 amSSE 2.9-----30.09- 34.7- 31.5---
2024-02-26 04:30 am S 2.9-----30.09- 34.5- 31.3---
2024-02-26 04:15 am S 4.1-----30.09- 34.7- 31.3---
2024-02-26 04:00 am S 4.1-----30.09+0.00 34.9- 30.9---
2024-02-26 03:45 am S 2.9-----30.09- 34.7- 29.8---
2024-02-26 03:30 am S 4.1-----30.09- 34.3- 29.5---
2024-02-26 03:15 am S 1.9-----30.09- 33.6- 29.3---
2024-02-26 03:00 am S 2.9-----30.09-0.03 33.4- 28.9---
2024-02-26 02:45 am S 4.1-----30.09- 33.3- 28.4---
2024-02-26 02:30 amSSE 2.9-----30.09- 32.9- 28.0---
2024-02-26 02:15 amSSE 2.9-----30.09- 32.7- 28.2---
2024-02-26 02:00 am S 4.1-----30.09-0.03 32.7- 28.4---
2024-02-26 01:45 amSSE 4.1-----30.09- 32.5- 28.0---
2024-02-26 01:30 amSSE 4.1-----30.09- 32.2- 27.3---
2024-02-26 01:15 amSSE 4.1-----30.09- 32.0- 26.6---
2024-02-26 01:00 amSSE 4.1-----30.09-0.03 31.6- 26.2---
2024-02-26 12:45 amSSE 4.1-----30.09- 31.5- 25.7---
2024-02-26 12:30 amSSE 4.1-----30.12- 31.1- 25.0---
2024-02-26 12:15 amSSE 4.1-----30.12- 30.9- 24.6---
2024-02-26 12:00 am S 4.1-----30.12+0.00 30.9- 24.6---
2024-02-25 11:45 pmSSE 4.1-----30.12- 30.7- 24.4---
2024-02-25 11:30 pmSSE 2.9-----30.12- 30.4- 23.7---
2024-02-25 11:15 pmSSE 2.9-----30.12- 30.2- 23.5---
2024-02-25 11:00 pm S 4.1-----30.12+0.00 30.0- 23.0---
2024-02-25 10:45 pm S 2.9-----30.12- 29.7- 22.5---
2024-02-25 10:30 pmSSE 2.9-----30.12- 29.3- 21.4---
2024-02-25 10:15 pmSSE 2.9-----30.12- 29.1- 20.5---
2024-02-25 10:00 pm S 2.9-----30.12+0.00 28.8- 19.9---
2024-02-25 09:45 pm S 2.9-----30.12- 28.8- 19.2---
2024-02-25 09:30 pm S 2.9-----30.12- 28.6- 18.7---
2024-02-25 09:15 pm S 2.9-----30.12- 28.6- 18.3---
2024-02-25 09:00 pm S 2.9-----30.12+0.00 28.6- 18.3---
2024-02-25 08:45 pmSSE 2.9-----30.12- 28.4- 18.1---
2024-02-25 08:30 pmSSE 2.9-----30.12- 28.4- 17.8---
2024-02-25 08:15 pmSSE 2.9-----30.12- 28.4- 16.3---
2024-02-25 08:00 pm S 2.9-----30.12+0.00 28.2- 16.2---
2024-02-25 07:45 pm S 4.1-----30.12- 28.0- 14.7---
2024-02-25 07:30 pm S 4.1-----30.12- 28.0- 14.4---
2024-02-25 07:15 pm S 2.9-----30.12- 28.0- 14.0---
2024-02-25 07:00 pmSSE 2.9-----30.12+0.03 27.9- 14.2---
2024-02-25 06:45 pmSSE 2.9-----30.12- 27.9- 14.5---
2024-02-25 06:30 pm S 2.9-----30.12- 28.0- 15.1---
2024-02-25 06:15 pm S 1.9-----30.12- 28.0- 16.3---
2024-02-25 06:00 pm S 1.9-----30.12+0.00 28.0- 15.6---
2024-02-25 05:45 pm S 1.0-----30.12- 28.0- 15.6---
2024-02-25 05:30 pm S 1.9-----30.12- 28.4- 15.8---
2024-02-25 05:15 pm S 1.9-----30.12- 28.8- 16.2---
2024-02-25 05:00 pm S 1.9-----30.12+0.00 29.3- 17.1---
2024-02-25 04:45 pm S 1.9-----30.09- 29.7- 17.4---
2024-02-25 04:30 pm S 2.9-----30.09- 30.0- 17.8---
2024-02-25 04:15 pm S 1.9-----30.09- 30.4- 18.5---
2024-02-25 04:00 pmSSE 2.9-----30.09-0.03 30.4- 18.5---
2024-02-25 03:45 pm S 2.9-----30.12- 30.7- 18.1---
2024-02-25 03:30 pm S 2.9-----30.12- 31.1- 18.1---
2024-02-25 03:15 pmSSE 2.9-----30.12- 30.7- 16.9---
2024-02-25 03:00 pm SE 2.9-----30.12-0.03 31.1- 17.6---
2024-02-25 02:45 pm SE 2.9-----30.12- 31.1- 17.2---
2024-02-25 02:30 pm SE 2.9-----30.12- 31.3- 17.1---
2024-02-25 02:15 pm SE 2.9-----30.12- 31.8- 16.2---
2024-02-25 02:00 pmSSE 2.9-----30.12+0.00 31.8- 15.3---
2024-02-25 01:45 pmSSE 4.1-----30.12- 31.6- 14.2---
2024-02-25 01:30 pmSSE 2.9-----30.12- 31.8- 14.9---
2024-02-25 01:15 pmSSE 2.9-----30.12- 30.9- 13.1---
2024-02-25 01:00 pm S 2.9-----30.12-0.03 31.3- 14.4---
2024-02-25 12:45 pmSSW 2.9-----30.12- 30.9- 13.5---
2024-02-25 12:30 pm S 2.9-----30.12- 31.3- 14.4---
2024-02-25 12:15 pm SE 4.1-----30.12- 30.4- 15.3---
2024-02-25 12:00 pm SE 2.9-----30.15+0.00 30.6- 15.1---
2024-02-25 11:45 am SE 2.9-----30.15- 30.0- 14.9---
2024-02-25 11:30 amSSE 2.9-----30.15- 29.5- 12.2---
2024-02-25 11:15 amSSE 2.9-----30.15- 28.9- 12.2---
2024-02-25 11:00 am SE 2.9-----30.12-0.03 28.9- 12.6---
2024-02-25 10:45 amENE 1.9-----30.15- 28.9- 11.7---
2024-02-25 10:30 amENE 1.9-----30.15- 28.6- 11.3---
2024-02-25 10:15 amWNW 2.9-----30.15- 26.6- 10.4---
2024-02-25 10:00 amWNW 2.9-----30.15+0.03 26.2- 10.0---
2024-02-25 09:45 amWNW 4.1-----30.15- 25.3- 9.7---
2024-02-25 09:30 am NW 2.9-----30.15- 24.4- 8.8---
2024-02-25 09:15 am NW 2.9-----30.15- 24.4- 8.8---
2024-02-25 09:00 amWNW 2.9-----30.15+0.03 23.2- 7.7---